• en Suisse
  • Liste des pays
  • À 7 jours
  • Température de l'eau
  • Carte satellitaire
  • Carte météo
  • Widgets météo
  • user-avatar
    Se connecter

    Météo par heure à Libiya

    Ce jour, 25 Septembre, Mardi

    Heure Température Précipitation Vent Pression Humidité
    00:00 +5°C° 0 mm 6 m/s 747 mmHg 79%
    01:00 +4°C° 0 mm 6 m/s 748 mmHg 80%
    02:00 +5°C° 0 mm 5 m/s 749 mmHg 81%
    03:00 +5°C° 0 mm 5 m/s 749 mmHg 82%
    04:00 +3°C° 0 mm 5 m/s 750 mmHg 82%
    05:00 +3°C° 0 mm 5 m/s 750 mmHg 82%
    06:00 +5°C° 0 mm 5 m/s 751 mmHg 79%
    07:00 +4°C° 0 mm 6 m/s 751 mmHg 77%
    08:00 +5°C° 0 mm 6 m/s 752 mmHg 74%
    09:00 +7°C° 0 mm 6 m/s 752 mmHg 68%
    10:00 +8°C° 0 mm 7 m/s 753 mmHg 62%
    11:00 +10°C° 0 mm 7 m/s 753 mmHg 56%
    12:00 +10°C° 0.2 mm 7 m/s 754 mmHg 56%
    13:00 +10°C° 0.2 mm 7 m/s 754 mmHg 55%
    14:00 +10°C° 0.2 mm 7 m/s 754 mmHg 55%
    15:00 +10°C° 0.1 mm 7 m/s 755 mmHg 57%
    16:00 +9°C° 0.1 mm 6 m/s 755 mmHg 59%
    17:00 +9°C° 0.1 mm 5 m/s 755 mmHg 61%
    18:00 +8°C° 0 mm 5 m/s 756 mmHg 64%
    19:00 +7°C° 0 mm 5 m/s 757 mmHg 68%
    20:00 +6°C° 0 mm 4 m/s 757 mmHg 71%
    21:00 +6°C° 0 mm 4 m/s 758 mmHg 73%
    22:00 +5°C° 0 mm 4 m/s 759 mmHg 75%
    23:00 +5°C° 0 mm 4 m/s 759 mmHg 77%

    Demain, 26 Septembre, Mercredi

    Heure Température Précipitation Vent Pression Humidité
    00:00 +4°C° 0 mm 4 m/s 760 mmHg 80%
    01:00 +4°C° 0 mm 3 m/s 760 mmHg 82%
    02:00 +3°C° 0 mm 3 m/s 760 mmHg 84%
    03:00 +3°C° 0 mm 3 m/s 761 mmHg 86%
    04:00 +3°C° 0 mm 3 m/s 761 mmHg 87%
    05:00 +3°C° 0 mm 2 m/s 761 mmHg 88%
    06:00 +3°C° 0 mm 3 m/s 761 mmHg 84%
    07:00 +4°C° 0 mm 3 m/s 762 mmHg 80%
    08:00 +5°C° 0 mm 3 m/s 762 mmHg 77%
    09:00 +7°C° 0 mm 3 m/s 762 mmHg 68%
    10:00 +8°C° 0 mm 4 m/s 761 mmHg 60%
    11:00 +11°C° 0 mm 4 m/s 761 mmHg 52%
    12:00 +10°C° 0 mm 5 m/s 761 mmHg 51%
    13:00 +12°C° 0 mm 5 m/s 760 mmHg 49%
    14:00 +13°C° 0 mm 6 m/s 759 mmHg 48%
    15:00 +12°C° 0 mm 5 m/s 759 mmHg 51%
    16:00 +12°C° 0 mm 5 m/s 758 mmHg 54%
    17:00 +11°C° 0 mm 4 m/s 758 mmHg 57%
    18:00 +11°C° 0.1 mm 4 m/s 758 mmHg 62%
    19:00 +9°C° 0.1 mm 5 m/s 757 mmHg 66%
    20:00 +8°C° 0.1 mm 5 m/s 757 mmHg 71%
    21:00 +8°C° 0 mm 5 m/s 756 mmHg 70%
    22:00 +8°C° 0 mm 6 m/s 756 mmHg 70%
    23:00 +8°C° 0 mm 6 m/s 755 mmHg 70%

    Après-demain, 27 Septembre, Jeudi

    Heure Température Précipitation Vent Pression Humidité
    00:00 +8°C° 0.2 mm 6 m/s 755 mmHg 70%
    01:00 +9°C° 0.2 mm 6 m/s 754 mmHg 70%
    02:00 +9°C° 0.2 mm 6 m/s 753 mmHg 70%
    03:00 +9°C° 0.4 mm 6 m/s 753 mmHg 69%
    04:00 +9°C° 0.4 mm 6 m/s 752 mmHg 69%
    05:00 +9°C° 0.4 mm 6 m/s 752 mmHg 68%
    06:00 +9°C° 0.1 mm 7 m/s 752 mmHg 68%
    07:00 +9°C° 0.1 mm 7 m/s 751 mmHg 68%
    08:00 +10°C° 0.1 mm 7 m/s 751 mmHg 68%
    09:00 +11°C° 0 mm 7 m/s 751 mmHg 69%
    10:00 +12°C° 0 mm 7 m/s 752 mmHg 70%
    11:00 +14°C° 0 mm 7 m/s 752 mmHg 71%
    12:00 +14°C° 0 mm 7 m/s 752 mmHg 72%
    13:00 +14°C° 0 mm 7 m/s 752 mmHg 74%
    14:00 +15°C° 0 mm 6 m/s 752 mmHg 76%
    15:00 +15°C° 0 mm 6 m/s 752 mmHg 77%
    16:00 +15°C° 0 mm 6 m/s 752 mmHg 78%
    17:00 +15°C° 0 mm 5 m/s 752 mmHg 78%
    18:00 +15°C° 0 mm 5 m/s 752 mmHg 81%
    19:00 +14°C° 0 mm 4 m/s 752 mmHg 83%
    20:00 +14°C° 0 mm 4 m/s 752 mmHg 86%
    21:00 +14°C° 0 mm 4 m/s 752 mmHg 87%
    22:00 +13°C° 0 mm 4 m/s 752 mmHg 89%
    23:00 +13°C° 0 mm 4 m/s 752 mmHg 90%

    28 Septembre, Vendredi

    Heure Température Précipitation Vent Pression Humidité
    00:00 +13°C° 0 mm 4 m/s 751 mmHg 91%
    01:00 +12°C° 0 mm 4 m/s 751 mmHg 93%
    02:00 +12°C° 0 mm 4 m/s 751 mmHg 94%
    03:00 +12°C° 0 mm 4 m/s 750 mmHg 94%
    04:00 +12°C° 0 mm 5 m/s 750 mmHg 93%
    05:00 +12°C° 0 mm 5 m/s 749 mmHg 93%
    06:00 +12°C° 0 mm 5 m/s 749 mmHg 91%
    07:00 +13°C° 0 mm 6 m/s 748 mmHg 88%
    08:00 +13°C° 0 mm 6 m/s 748 mmHg 86%
    09:00 +14°C° 0.1 mm 6 m/s 748 mmHg 83%
    10:00 +15°C° 0.1 mm 6 m/s 748 mmHg 80%
    11:00 +16°C° 0.1 mm 7 m/s 748 mmHg 78%
    12:00 +16°C° 0.1 mm 6 m/s 748 mmHg 77%
    13:00 +16°C° 0.1 mm 6 m/s 749 mmHg 76%
    14:00 +16°C° 0.1 mm 5 m/s 749 mmHg 75%
    15:00 +15°C° 0 mm 5 m/s 749 mmHg 72%
    16:00 +15°C° 0 mm 4 m/s 749 mmHg 70%
    17:00 +14°C° 0 mm 3 m/s 749 mmHg 67%
    18:00 +13°C° 0 mm 3 m/s 749 mmHg 70%
    19:00 +13°C° 0 mm 2 m/s 749 mmHg 72%
    20:00 +10°C° 0 mm 2 m/s 750 mmHg 74%
    21:00 +10°C° 0 mm 2 m/s 750 mmHg 74%
    22:00 +9°C° 0 mm 2 m/s 750 mmHg 75%
    23:00 +8°C° 0 mm 2 m/s 750 mmHg 76%

    29 Septembre, Samedi

    Heure Température Précipitation Vent Pression Humidité
    00:00 +8°C° 0 mm 2 m/s 750 mmHg 77%
    01:00 +8°C° 0 mm 2 m/s 750 mmHg 79%
    02:00 +8°C° 0 mm 2 m/s 750 mmHg 81%
    03:00 +8°C° 0 mm 2 m/s 750 mmHg 82%
    04:00 +8°C° 0 mm 2 m/s 750 mmHg 82%
    05:00 +8°C° 0 mm 2 m/s 750 mmHg 83%
    06:00 +8°C° 0 mm 2 m/s 750 mmHg 83%
    07:00 +8°C° 0 mm 2 m/s 751 mmHg 83%
    08:00 +9°C° 0 mm 2 m/s 751 mmHg 82%
    09:00 +10°C° 0 mm 3 m/s 751 mmHg 75%
    10:00 +11°C° 0 mm 3 m/s 752 mmHg 67%
    11:00 +12°C° 0 mm 4 m/s 752 mmHg 60%
    12:00 +13°C° 0 mm 4 m/s 752 mmHg 57%
    13:00 +13°C° 0 mm 4 m/s 752 mmHg 54%
    14:00 +13°C° 0 mm 4 m/s 752 mmHg 51%
    15:00 +13°C° 0 mm 4 m/s 752 mmHg 53%
    16:00 +12°C° 0 mm 3 m/s 752 mmHg 55%
    17:00 +12°C° 0 mm 3 m/s 753 mmHg 58%
    18:00 +10°C° 0 mm 3 m/s 753 mmHg 61%
    19:00 +9°C° 0 mm 2 m/s 754 mmHg 65%
    20:00 +7°C° 0 mm 2 m/s 754 mmHg 68%
    21:00 +7°C° 0 mm 2 m/s 754 mmHg 69%
    22:00 +6°C° 0 mm 2 m/s 754 mmHg 69%
    23:00 +7°C° 0 mm 1 m/s 754 mmHg 70%

    30 Septembre, Dimanche

    Heure Température Précipitation Vent Pression Humidité
    00:00 +6°C° 0 mm 1 m/s 754 mmHg 72%
    01:00 +6°C° 0 mm 1 m/s 754 mmHg 74%
    02:00 +5°C° 0 mm 1 m/s 754 mmHg 76%
    03:00 +5°C° 0 mm 1 m/s 754 mmHg 79%
    04:00 +5°C° 0 mm 1 m/s 754 mmHg 81%
    05:00 +5°C° 0 mm 1 m/s 754 mmHg 83%
    06:00 +5°C° 0 mm 1 m/s 754 mmHg 81%
    07:00 +6°C° 0 mm 1 m/s 754 mmHg 80%
    08:00 +7°C° 0 mm 1 m/s 753 mmHg 78%
    09:00 +8°C° 0 mm 1 m/s 753 mmHg 70%
    10:00 +9°C° 0 mm 2 m/s 753 mmHg 63%
    11:00 +12°C° 0 mm 2 m/s 753 mmHg 55%
    12:00 +13°C° 0 mm 2 m/s 752 mmHg 52%
    13:00 +13°C° 0 mm 2 m/s 751 mmHg 48%
    14:00 +14°C° 0 mm 2 m/s 751 mmHg 45%
    15:00 +14°C° 0 mm 2 m/s 750 mmHg 48%
    16:00 +13°C° 0 mm 2 m/s 750 mmHg 51%
    17:00 +13°C° 0 mm 1 m/s 749 mmHg 55%
    18:00 +12°C° 0 mm 2 m/s 749 mmHg 57%
    19:00 +10°C° 0 mm 2 m/s 749 mmHg 59%
    20:00 +8°C° 0 mm 2 m/s 749 mmHg 62%
    21:00 +8°C° 0 mm 2 m/s 748 mmHg 64%
    22:00 +8°C° 0 mm 2 m/s 748 mmHg 66%
    23:00 +7°C° 0 mm 2 m/s 748 mmHg 67%
    Voir plus